Location: High Point State Park
(41.2941°N, 74.6906°W)
Time: 04:33:52
(UTC-04:00)

Hubble Space Telescope - Visible Passes

Search period start: 28 May 2017 00:00
Search period end: 07 June 2017 00:00
Orbit: 538 x 542 km, 28.5° (Epoch: 27 May)

Date Brightness Start Highest point End Pass type
(mag) Time Alt. Az. Time Alt. Az. Time Alt. Az.
29 May 3.1 22:07:55 10° SSW 22:08:02 10° SSW 22:08:02 10° SSW visible
30 May 2.8 21:57:34 10° SSW 21:58:52 13° S 21:58:52 13° S visible
31 May 2.7 21:47:19 10° SSW 21:49:27 14° S 21:49:33 14° S visible
01 Jun 2.7 21:37:08 10° SSW 21:39:15 14° S 21:40:06 13° SSE visible
02 Jun 2.8 21:27:03 10° SSW 21:29:04 13° S 21:30:34 11° SSE visible
03 Jun 2.9 21:17:02 10° SSW 21:18:51 13° S 21:20:41 10° SSE visible
04 Jun 3.0 21:07:09 10° SSW 21:08:39 12° S 21:10:09 10° SSE visible
